• Processing (Info)

  • MPEC 2010-U17 : 2010 UK

    The following Minor Planet Electronic Circular may be linked-to from your own Web pages, but must not otherwise be redistributed electronically.

    A form allowing access to any MPEC is at the bottom of this page.


    Read MPEC 2010-U16 Read MPEC 2010-U18


    M.P.E.C. 2010-U17                                Issued 2010 Oct. 18, 16:29 UT
    
         The Minor Planet Electronic Circulars contain information on unusual
             minor planets and routine data on comets.  They are published
       on behalf of Commission 20 of the International Astronomical Union by the
              Minor Planet Center, Smithsonian Astrophysical Observatory,
                              Cambridge, MA 02138, U.S.A.
    
                 Prepared using the Tamkin Foundation Computer Network
    
                                  MPC@CFA.HARVARD.EDU
           URL https://www.minorplanetcenter.org/iau/mpc.html  ISSN 1523-6714
    
                                        2010 UK
    
    Observations:
         K10U00K  C2010 10 17.49652 03 40 46.92 +12 46 04.9          17.0 V EU017G96
         K10U00K  C2010 10 17.49782 03 40 38.95 +12 44 45.2          17.0 V EU017G96
         K10U00K* C2010 10 17.52373 03 38 02.18 +12 18 35.1          16.8 V EU017G96
         K10U00K  C2010 10 17.52398 03 38 00.67 +12 18 19.8          16.8 V EU017G96
         K10U00K  C2010 10 17.52426 03 37 58.98 +12 18 02.9          16.9 V EU017G96
         K10U00K  C2010 10 17.52454 03 37 57.36 +12 17 46.4          16.8 V EU017G96
         K10U00K  C2010 10 17.52505 03 37 54.30 +12 17 15.5          16.8 V EU017G96
         K10U00K  C2010 10 17.52532 03 37 52.64 +12 16 58.3          16.9 V EU017G96
         K10U00K  C2010 10 17.52561 03 37 50.91 +12 16 41.0          16.9 V EU017G96
         K10U00K  C2010 10 17.52589 03 37 49.18 +12 16 23.6          16.6 V EU017G96
         K10U00K  C2010 10 17.52654 03 37 45.40 +12 15 45.4          16.6 V EU017G96
         K10U00K  C2010 10 17.52683 03 37 43.68 +12 15 27.8          16.7 V EU017G96
         K10U00K  C2010 10 17.52712 03 37 41.95 +12 15 10.1          16.8 V EU017G96
         K10U00K  C2010 10 17.52742 03 37 40.15 +12 14 52.0          16.8 V EU017G96
         K10U00K  C2010 10 17.52799 03 37 36.76 +12 14 17.8          16.7 V EU017G96
         K10U00K  C2010 10 17.52827 03 37 35.07 +12 14 00.4          16.6 V EU017G96
         K10U00K  C2010 10 17.52858 03 37 33.34 +12 13 42.7          16.6 V EU017G96
         K10U00K  C2010 10 17.52887 03 37 31.62 +12 13 25.1          16.4 V EU017G96
         K10U00K  C2010 10 17.52935 03 37 28.70 +12 12 55.3          16.6 V EU017G96
         K10U00K  C2010 10 17.52964 03 37 27.01 +12 12 38.7          16.6 V EU017G96
         K10U00K  C2010 10 17.52993 03 37 25.28 +12 12 21.1          16.8 V EU017G96
         K10U00K  C2010 10 17.53022 03 37 23.55 +12 12 03.4          16.5 V EU017G96
         K10U00K  C2010 10 17.53081 03 37 20.10 +12 11 28.7          16.4 V EU017G96
         K10U00K  C2010 10 17.53105 03 37 18.62 +12 11 13.4          16.5 V EU017G96
         K10U00K  C2010 10 17.53131 03 37 17.11 +12 10 57.3          16.4 V EU017G96
         K10U00K  C2010 10 17.53157 03 37 15.49 +12 10 41.3          16.5 V EU017G96
         K10U00K  C2010 10 17.53271 03 37 08.83 +12 09 33.5          16.3 V EU017G96
         K10U00K  C2010 10 17.53296 03 37 07.35 +12 09 17.8          16.4 V EU017G96
         K10U00K  C2010 10 17.66956 03 26 11.89 +09 59 20.3          17.3 R EU017300
         K10U00K  C2010 10 17.67039 03 26 07.26 +09 58 35.3          17.1 R EU017300
         K10U00K  C2010 10 17.67085 03 26 04.64 +09 58 09.1          17.2 R EU017300
         K10U00K  C2010 10 17.67131 03 26 02.03 +09 57 43.9          17.3 R EU017300
         K10U00K  C2010 10 17.67224 03 25 56.78 +09 56 52.1          17.3 R EU017300
         K10U00K  C2010 10 17.67270 03 25 54.20 +09 56 26.3          17.6 R EU017300
         K10U00K  C2010 10 17.67317 03 25 51.56 +09 56 00.7          17.3 R EU017300
         K10U00K KC2010 10 17.88357 03 09 34.14 +06 45 26.7          16.8 R EU017A17
         K10U00K KC2010 10 17.88673 03 09 19.29 +06 42 51.2          17.6 R EU017A17
         K10U00K KC2010 10 17.89326 03 08 48.60 +06 37 29.6          17.8 R EU017A17
         K10U00K KC2010 10 17.90288 03 08 03.48 +06 29 38.3          17.3 R EU017A17
         K10U00K KC2010 10 17.90928 03 07 33.55 +06 24 25.5          17.3 R EU017A17
         K10U00K KC2010 10 17.93716303 05 29.50 +06 01 15.2                 EU017J95
         K10U00K KC2010 10 17.93907503 05 20.74 +05 59 43.5                 EU017J95
         K10U00K KC2010 10 17.94344103 05 00.71 +05 56 13.8                 EU017J95
         K10U00K KC2010 10 17.94536003 04 51.94 +05 54 42.0          17.5 R EU017J95
         K10U00K KC2010 10 18.16142802 50 31.69 +03 14 07.5          17.2 V EU017H21
         K10U00K KC2010 10 18.16425502 50 20.25 +03 12 07.4          17.3 V EU017H21
         K10U00K KC2010 10 18.16706402 50 08.93 +03 10 08.5          17.2 V EU017H21
         K10U00K KC2010 10 18.28218 02 42 40.60 +01 51 34.7          17.8 R EU017H36
         K10U00K KC2010 10 18.28421 02 42 32.76 +01 50 14.2          17.8 R EU017H36
         K10U00K KC2010 10 18.28659 02 42 23.59 +01 48 39.8          17.7 R EU017H36
         K10U00K KC2010 10 18.28872 02 42 15.43 +01 47 15.7          17.8 R EU017H36
         K10U00K KC2010 10 18.29085 02 42 07.22 +01 45 51.2          17.6 R EU017H36
         K10U00K KC2010 10 18.33561 02 39 27.49 +01 18 20.1                 EU017H10
         K10U00K KC2010 10 18.34001 02 39 11.21 +01 15 33.8          16.5 R EU017H10
         K10U00K KC2010 10 18.34598 02 38 49.05 +01 11 47.1                 EU017H10
    
    Observer details:
    300 Bisei Spaceguard Center--BATTeRS.  Observers A. Asami, S. Okumura.  1.0-m
        f/3.0 reflector + CCD.
    A17 Guidestar Observatory, Weinheim.  Observers M. Emmerich, S. Melchert.
        0.36-m f/6 Schmidt-Cassegrain + CCD.
    G96 Mt. Lemmon Survey.  Observer A. Boattini.  Measurers J. D. Ahern,
        E. C. Beshore, A. Boattini, G. J. Garradd, A. R. Gibbs, A. D. Grauer,
        R. E. Hill, R. A. Kowalski, S. M. Larson, R. H. McNaught.  1.5-m reflector
        + CCD.
    H10 Tzec Maun Observatory, Mayhill.  Observers L. Buzzi, S. Foglia.  0.36-m
        f/3.9 reflector + CCD.
    H21 Astronomical Research Observatory, Westfield.  Observer R. Holmes.
        Measurers S. Foglia, T. Vorobjov.  0.61-m f/4.0 astrograph + CCD.
    H36 Sandlot Observatory, Scranton.  Observer G. Hug.  0.56-m reflector + CCD.
    J95 Great Shefford.  Observer P. Birtwhistle.  0.40-m f/6.0 Schmidt-Cassegrain
        + CCD.
    
    Orbital elements:
    2010 UK                                                  Earth MOID = 0.0021 AU
    Epoch 2010 July 23.0 TT = JDT 2455400.5                 MPC
    M  20.26757              (2000.0)            P               Q
    n   1.21012217     Peri.   38.27360     -0.47159714     +0.88115350
    a   0.8721340      Node   203.64690     -0.82856616     -0.45603266
    e   0.2145798      Incl.    4.88083     -0.30178511     -0.12491087
    P   0.81           H   26.8           G   0.15           U   7
    Residuals in seconds of arc
    101017 G96  0.4-  0.1-    101017 G96  0.3+  0.4+    101017 A17  0.2+  0.1+
    101017 G96  0.3-  0.7-    101017 G96  0.1+  0.3+    101017 A17  0.8+  0.0
    101017 G96  0.3+  0.2+    101017 G96  0.1-  0.0     101017 J95  0.1-  0.1-
    101017 G96  0.0   0.0     101017 G96  0.6+  0.9+    101017 J95  0.1+  0.1+
    101017 G96  0.2-  0.0     101017 G96  0.2-  0.1+    101017 J95  0.2-  0.1-
    101017 G96  0.5+  0.4+    101017 G96  0.2+  0.4-    101017 J95  0.1+  0.1+
    101017 G96  0.2+  0.3+    101017 G96  1.0-  0.7-    101018 H21  0.6-  0.3-
    101017 G96  0.5-  0.6-    101017 G96  0.2+  0.2+    101018 H21  0.9-  0.6-
    101017 G96  0.6-  0.4-    101017 G96  0.2+  0.5-    101018 H21  0.6-  0.6-
    101017 G96  1.5-  0.9-    101017 300  0.5+  0.1+    101018 H36  2.1-  1.5-
    101017 G96  0.2-  0.1+    101017 300  1.2+  1.1+    101018 H36  2.3-  1.5-
    101017 G96  0.1-  0.0     101017 300  0.8+  0.4+    101018 H36  2.3-  1.5-
    101017 G96  0.1-  0.2-    101017 300  0.5+  0.7+    101018 H36  1.8-  1.3-
    101017 G96  0.4-  0.2-    101017 300  0.3+  0.5+    101018 H36  2.2-  1.5-
    101017 G96  0.4-  0.0     101017 300  0.4+  0.2+    101018 H10  0.2-  0.2-
    101017 G96  0.8-  0.5-    101017 300  0.5+  0.7+    101018 H10 (3.9+  2.8+)
    101017 G96  0.8+  0.5+    101017 A17  0.7-  0.4-    101018 H10 (7.2+  5.0+)
    101017 G96  0.9+  0.4+    101017 A17  0.3-  0.0
    101017 G96  0.2-  0.5-    101017 A17  0.1-  0.3-
    
    Ephemeris:
    2010 UK                  a,e,i = 0.87, 0.21, 5                   q = 0.6850
    Date    TT    R. A. (2000) Decl.     Delta      r     Elong.  Phase     V
    2010 10 11    11 06.59   +30 47.7    0.0205   0.985    47.0   132.1    24.2
    2010 10 13    10 31.34   +33 32.7    0.0140   0.990    56.0   123.3    22.6
    2010 10 15    08 53.61   +37 17.5    0.00815  0.995    76.8   102.7    20.1
    2010 10 17    04 36.64   +21 36.9    0.00574  1.001   132.7    47.1    17.4
    2010 10 19    02 08.85   -04 22.4    0.00976  1.006   163.4    16.5    17.6
    2010 10 21    01 21.05   -13 03.0    0.0159   1.010   155.9    23.7    18.9
    2010 10 23    00 59.71   -16 34.4    0.0225   1.015   149.6    29.7    19.9
    2010 10 25    00 47.94   -18 22.4    0.0293   1.019   145.3    33.8    20.6
    2010 10 27    00 40.63   -19 24.7    0.0362   1.023   141.9    36.8    21.1
    2010 10 29    00 35.78   -20 02.7    0.0431   1.026   139.1    39.3    21.6
    2010 10 31    00 32.43   -20 26.0    0.0501   1.030   136.7    41.4    22.0
    
    Sonia Keys                   (C) Copyright 2010 MPC           M.P.E.C. 2010-U17
    

    Read MPEC 2010-U16 Read MPEC 2010-U18


    MPEC number:

    Enter an MPEC number in one of the following forms:

    • 1997-B01 (the full form)
    • J97B01 (the packed version of the full form)
    • B01 (the abbreviated form)